This demonstration page uses our WeatherBlox Daily Observations layout. Learn more.

Left ArrowRight Arrow

Hourly Observations for August 18, 2015

Temp ( °F °C ) Dew Point ( °F °C ) Humidity (%) Winds ( mph kmh ) Pressure ( in mb ) Visibility ( mi km ) Precip ( " mm )
12:53 am 00:53 Clear 83 28.3 49 9.4 31 31 SSE 12 19 29.75 1008 10 16 0.00 0.00
1:53 am 01:53 Clear 82 27.8 50 10 33 33 SSE 12 19 29.75 1007 10 16 0.00 0.00
2:53 am 02:53 Clear 81 27.2 50 10 34 34 SSE 12 19 29.72 1006 10 16 0.00 0.00
3:53 am 03:53 Clear 79 26.1 51 10.6 38 38 SSE 9 15 29.71 1006 10 16 0.00 0.00
4:53 am 04:53 Clear 78 25.6 54 12.2 43 43 SSE 9 15 29.71 1006 10 16 0.00 0.00
6:53 am 06:53 Clear 77 25 56 13.3 48 48 SE 13 20 29.70 1006 10 16 0.00 0.00
7:53 am 07:53 Sunny 78 25.6 57 13.9 48 48 SE 14 22 29.72 1006 10 16 0.00 0.00
8:53 am 08:53 Cloudy 79 26.1 59 15 50 50 ENE 10 17 29.78 1008 10 16 0.00 0.00
9:15 am 09:15 Cloudy 79 26.1 60 15.6 52 52 NE 12 19 29.77 1008 10 16 0.00 0.00
9:53 am 09:53 undefined N/A N/A N/A undefined N/A N/A N/A 0.00 0.00
10:53 am 10:53 Mostly Sunny 82 27.8 61 16.1 49 49 SE 15 24 29.72 1006 10 16 0.00 0.03
11:53 am 11:53 Sunny 88 31.1 59 15 38 38 SSE 16 26 29.71 1006 10 16 0.00 0.00
12:53 pm 12:53 Sunny 93 33.9 58 14.4 31 31 SSE 14 22 29.68 1005 10 16 0.00 0.00
1:53 pm 13:53 Sunny 97 36.1 55 12.8 24 24 VRB 6 9 29.65 1004 10 16 0.00 0.00
2:53 pm 14:53 Sunny 98 36.7 54 12.2 23 23 VRB 6 9 29.63 1003 10 16 0.00 0.00
3:53 pm 15:53 Sunny 100 37.8 53 11.7 21 21 WSW 8 13 29.59 1002 10 16 0.00 0.00
5:53 pm 17:53 Sunny 101 38.3 52 11.1 19 19 SSW 7 11 29.54 1000 10 16 0.00 0.00
6:53 pm 18:53 Sunny 100 37.8 52 11.1 20 20 S 6 9 29.52 1000 10 16 0.00 0.00
7:53 pm 19:53 Sunny 99 37.2 53 11.7 21 21 SE 13 20 29.52 1000 10 16 0.00 0.00
8:53 pm 20:53 Clear 95 35 54 12.2 25 25 SE 17 28 29.55 1001 10 16 0.00 0.00
9:53 pm 21:53 Clear 92 33.3 53 11.7 27 27 SE 14 22 29.50 999 10 16 0.00 0.00
10:53 pm 22:53 Clear 91 32.8 53 11.7 27 27 SE 17 28 29.59 1002 10 16 0.00 0.00
11:53 pm 23:53 Clear 89 31.7 54 12.2 30 30 SE 18 30 29.60 1002 10 16 0.00 0.00

Powered by AerisWeather